Location: Alta
(39.2070°N, 120.8111°W)
Time: 00:18:02
(UTC+00:00)

ITAMSAT 1 - Pass Details

Date: 07 April 2023
Orbit: 782 x 797 km, 98.8° (Epoch: 29 May)

Event Time Altitude Azimuth Distance (km) Brightness Sun altitude
Exits shadow 03:47:15 - 168° (SSE) 2,950 10.3 -14.9°
Reaches altitude 10° 03:48:45 10° 169° (SSE) 2,352 9.8 -15.1°
Maximum altitude 03:53:58 81° 257° (WSW) 809 7.7 -16.1°
Drops below altitude 10° 03:59:13 10° 344° (NNW) 2,374 10.7 -17.0°
Sets 04:01:34 0° 346° (NNW) 3,309 11.5 -17.4°
